Location: Guilers
(48.4254°N, 4.5580°W)
Time: 04:46:34
(UTC+00:00)

Daily predictions for brighter satellites

Satellite Brightness Start Highest point End
(mag) Time Altitude Azimuth Time Altitude Azimuth Time Altitude Azimuth
Cosmos 2219 Rocket 4.4 00:02:31 10° W 00:06:57 23° NW 00:11:23 10° N
Cosmos 1816 Rocket 4.5 00:07:26 28° SSW 00:10:51 81° W 00:17:01 10° N
ATLAS CENTAUR R/B 3.5 00:07:30 19° SW 00:11:41 80° SE 00:25:54 10° NE
Okean 1-7 Rocket 4.3 00:10:20 25° SW 00:12:31 46° WNW 00:16:48 10° N
Cosmos 1825 4.4 00:13:02 13° ESE 00:14:17 15° E 00:16:25 10° NE
Cosmos 1328 4.0 00:13:42 38° SW 00:14:59 60° W 00:18:52 10° N
Cosmos 1812 Rocket 3.5 00:13:29 10° N 00:17:51 82° W 00:19:25 40° S
Cosmos 1408 4.0 00:19:18 24° ESE 00:20:12 27° E 00:23:21 10° NNE
Cosmos 1455 4.4 00:18:09 10° NW 00:20:22 15° W 00:21:43 13° WSW
SL-16 R/B 2.1 00:19:56 30° SSW 00:22:55 82° ESE 00:28:38 10° NNE
Cosmos 405 Rocket 4.4 00:23:36 18° ESE 00:24:35 20° E 00:27:22 10° NE
USA 229 DEB 4.0 00:22:35 29° S 00:25:25 45° ESE 00:31:49 10° NE
USA 229 4.0 00:22:43 29° S 00:25:31 45° ESE 00:31:55 10° NE
Cosmos 2237 Rocket 3.3 00:20:46 10° WSW 00:26:03 40° NW 00:31:21 10° NNE
MTI 4.2 00:24:28 10° N 00:27:25 48° WNW 00:27:55 42° WSW
Cosmos 1898 Rocket 4.2 00:27:12 10° NNW 00:32:18 49° ENE 00:36:10 17° SE
NOSS 3-1 (C) 3.2 00:31:10 30° SSW 00:33:59 73° SE 00:40:17 10° NE
Cosmos 2369 Rocket 2.5 00:28:58 10° NNW 00:34:41 65° ENE 00:38:58 18° SE
Cosmos 1356 4.2 00:37:29 35° ESE 00:38:05 38° E 00:41:17 10° NNE
SJ 16-02 1.6 00:34:24 10° NNW 00:38:41 54° WSW 00:40:00 38° SSW
GP-B 3.3 00:35:44 10° N 00:40:08 63° W 00:41:51 35° SSW
NOSS 2-3 (E) 3.5 00:42:31 39° SSW 00:44:00 70° SE 00:48:50 10° NE
NOSS 3-1 (A) 3.5 00:42:41 31° S 00:45:01 52° ESE 00:51:04 10° NE
Cosmos 1825 Rocket 3.6 00:45:41 37° S 00:47:24 79° E 00:51:52 10° NNE
USA 215 3.6 00:40:56 10° NE 00:47:24 66° NNW 00:53:52 10° WSW
Cosmos 2142 Rocket 4.4 00:46:52 10° N 00:53:02 86° W 00:56:33 28° S
ALOS 2 4.4 00:51:48 17° WSW 00:53:09 19° W 00:56:18 10° NW
CZ-3B R/B 4.1 00:41:02 10° W 00:55:18 50° NNW 00:59:12 10° ENE
Aureole 3 4.1 00:54:32 10° NNW 00:58:11 42° W 00:59:40 31° SW
Cosmos 2297 4.4 00:54:09 10° NW 00:59:19 39° WSW 01:01:28 28° SSW
Helios 1A 3.5 01:00:06 24° SE 01:02:26 55° ENE 01:06:34 10° N
Cosmos 468 Rocket 4.1 01:00:57 31° S 01:03:22 67° ESE 01:08:34 10° NNE
SL-16 R/B 3.6 01:00:44 10° SE 01:06:29 42° ENE 01:12:14 10° N
USA 305 4.5 01:10:32 20° SE 01:10:49 20° SE 01:13:56 10° E
Cosmos 1953 Rocket 3.5 01:10:29 35° S 01:12:18 87° W 01:16:45 10° N
Lacrosse 4 Rocket 3.3 01:09:49 10° NNW 01:13:28 29° NE 01:17:03 10° ESE
Cosmos 1763 Rocket 3.4 01:15:44 30° SSW 01:18:17 87° ESE 01:23:28 10° NNE
Cosmos 2098 Rocket 4.0 01:15:08 22° SSE 01:18:17 48° E 01:22:34 10° NNE
BREEZE-M R/B 4.0 01:18:11 19° SE 01:18:21 19° SE 01:21:15 10° E
Thor Agena Rocket 4.5 01:14:03 10° N 01:18:55 40° WNW 01:22:10 19° SW
Cosmos 1869 3.9 01:15:47 10° NNW 01:19:41 44° W 01:21:00 32° SW
Cosmos 1437 Rocket 2.7 01:16:43 10° N 01:20:37 79° ENE 01:22:19 32° SSE
Resurs 1-4 Rocket 3.2 01:16:04 10° NNE 01:20:58 36° E 01:24:24 18° SSE
USA 267 3.8 01:19:19 24° S 01:22:17 36° SW 01:28:14 10° WNW
Cosmos 1892 3.3 01:21:02 31° SW 01:22:27 45° WNW 01:26:13 10° N
In-Cosmos 22 Rocket 4.3 01:20:44 27° SSW 01:23:49 65° WNW 01:29:16 10° N
SL-4 R/B 2.6 01:20:11 10° W 01:23:56 51° N 01:27:27 10° ENE
NOSS 2-3 (D) 3.9 01:22:26 23° WSW 01:25:00 63° NW 01:29:58 10° NE
Cosmos 1943 Rocket 3.2 01:22:57 10° NW 01:27:38 29° WSW 01:29:31 23° SW
Cosmos 1842 Rocket 3.6 01:26:23 10° N 01:30:45 78° E 01:33:14 25° SSE
ADEOS II 3.9 01:28:20 10° NE 01:32:24 22° E 01:36:26 10° SE
Lacrosse 5 rocket 3.7 01:30:00 10° NW 01:32:55 23° N 01:35:51 10° ENE
USA 306 4.0 01:32:05 25° SSE 01:33:03 28° SE 01:36:41 10° ENE
EO 1 Del DPAF 4.0 01:29:54 10° N 01:33:25 40° WNW 01:34:57 26° WSW
Exosat Rocket 3.8 01:30:27 24° SSW 01:34:33 83° WNW 01:39:47 10° NNE
Cosmos 921 Rocket 3.7 01:32:38 25° SSE 01:34:39 43° ESE 01:38:37 10° NNE
FALCON 9 DEB 3.1 01:31:20 10° WNW 01:34:45 79° NNE 01:38:08 10° ESE
Cosmos 1943 3.2 01:33:25 26° SSW 01:36:41 80° ESE 01:42:22 10° NNE
CZ-2D R/B 2.7 01:34:43 10° NNE 01:39:47 49° E 01:43:15 20° SSE
MOZ.5/SAFIR/RUBIN 5/SL-8 3.8 01:38:05 25° S 01:40:54 76° WSW 01:45:41 10° NNW
NOSS 2-3 (C) 4.5 01:38:43 16° WSW 01:41:58 47° NW 01:46:55 10° NE
Cosmos 1603 3.7 01:41:52 24° SSW 01:45:24 86° WNW 01:51:06 10° NNE
Cosmos 2151 4.3 01:44:56 15° SSE 01:47:54 33° E 01:51:40 10° NNE
Cosmos 1825 2.7 01:47:48 28° SW 01:49:21 46° WNW 01:53:01 10° N
Cosmos 1076 Rocket 3.7 01:49:45 23° S 01:52:14 64° E 01:56:27 10° NNE
Cosmos 1437 2.7 01:51:47 10° N 01:54:34 59° ENE 01:55:51 27° SSE
Cosmos 1408 4.2 01:53:33 18° WSW 01:55:08 23° WNW 01:58:10 10° NNW
Cosmos 540 Rocket 3.5 01:55:00 24° SSW 01:58:08 78° WNW 02:03:17 10° NNE
Cosmos 1242 Rocket 2.5 01:54:44 10° NNW 01:58:19 67° W 02:00:05 28° S
DELTA 2 R/B (1) 4.3 01:57:41 23° SSW 02:00:03 31° S 02:04:54 10° ESE
Cosmos 405 Rocket 3.8 01:58:43 21° WSW 02:00:22 30° WNW 02:03:41 10° N
X-37B 0.9 02:01:04 31° SW 02:02:05 43° S 02:05:08 10° ESE
Cosmos 2058 3.4 02:00:33 25° SW 02:02:37 47° WNW 02:06:36 10° N
Cosmos 2221 2.9 01:58:55 10° NNW 02:03:02 46° W 02:05:12 24° SSW
BREEZE-M DEB (TANK) 1.5 02:01:48 10° W 02:04:48 72° N 02:07:02 10° E
Cosmos 841 Rocket 3.5 02:03:07 22° SSW 02:06:27 78° WNW 02:11:37 10° NNE
SL-16 R/B 4.1 02:03:18 10° W 02:07:45 23° NW 02:12:12 10° N
Cosmos 1656 Rocket 4.2 02:02:40 10° NW 02:08:00 42° WSW 02:11:35 19° SSW
NOSS 2-2 (E) 3.2 02:08:03 27° SSW 02:09:42 61° SE 02:13:27 10° NE
CREW DRAGON DEMO-1 DEB 3.2 02:10:06 16° W 02:11:47 46° NNW 02:14:11 10° ENE
FALCON 9 DEB 3.8 02:10:35 10° WNW 02:13:39 51° NNE 02:16:43 10° E
Cosmos 1937 Rocket 4.3 02:09:37 10° NW 02:14:26 35° WSW 02:17:27 20° SSW
Cosmos 1782 4.3 02:12:34 10° N 02:16:16 35° ENE 02:19:57 10° SE
USA 229 DEB 4.3 02:10:00 10° WSW 02:16:19 51° NW 02:23:07 10° NE
USA 229 4.3 02:10:07 10° WSW 02:16:24 51° NW 02:23:13 10° NE
USA 307 3.2 02:14:11 23° SSW 02:16:34 51° SE 02:20:43 10° ENE
Cosmos 2369 Rocket 3.5 02:13:49 10° NW 02:18:13 23° WSW 02:20:43 17° SW
Meteor 2-15 Rocket 4.4 02:12:49 10° NNW 02:19:00 80° W 02:24:44 12° S
USA 281 4.1 02:12:53 10° SE 02:19:10 51° NE 02:25:30 10° NNW
Nadezhda 4 Rocket 4.4 02:15:22 19° SW 02:19:42 50° WNW 02:25:40 10° N
Cosmos 2026 Rocket 4.1 02:16:00 16° S 02:21:10 86° E 02:27:35 10° N
ARGOS Delta rocket 4.3 02:16:54 10° N 02:22:20 65° WNW 02:26:25 18° SSW
NOSS 2-2 (C) 3.1 02:21:26 24° SSW 02:23:22 64° SE 02:27:05 10° NE
Aureole 3 Rocket 3.4 02:20:53 10° NNW 02:24:41 53° W 02:28:38 16° S
ERBS 4.4 02:24:39 12° SSE 02:26:06 15° SE 02:28:05 10° E
Helios 1B rocket 2.4 02:23:26 10° NNE 02:27:32 80° WNW 02:30:26 19° SSW
Cosmos 1633 2.8 02:27:25 22° SSW 02:29:27 53° WNW 02:32:56 10° N
USA 215 4.5 02:23:49 10° ENE 02:29:54 43° N 02:35:59 10° WNW
FALCON 9 DEB 2.9 02:27:33 10° WNW 02:30:39 77° NNE 02:33:44 10° ESE
SL-19 R/B 4.2 02:26:54 10° NNE 02:32:12 83° ESE 02:36:51 14° SSW
ATLAS 5 CENTAUR R/B 1.4 02:29:34 20° SSW 02:32:16 77° SE 02:36:44 10° NE
USA 308 3.0 02:29:31 19° SW 02:32:28 65° SE 02:36:42 10° ENE
Cosmos 2298 Rocket 4.0 02:27:35 10° NNW 02:32:58 89° WSW 02:38:17 10° SSE
Cosmos 1814 Rocket 4.1 02:32:04 17° SW 02:36:02 65° WNW 02:41:12 10° NNE
NOSS 3-1 (A) 4.4 02:30:46 10° WSW 02:36:06 41° NNW 02:42:23 10° NE
UNK 4.2 02:32:45 16° SSW 02:36:06 45° W 02:40:34 10° NNW
SeaSat 1 4.1 02:32:11 10° NE 02:36:15 25° ESE 02:40:16 10° SSE
Cosmos 1606 3.8 02:33:49 10° NNW 02:37:08 28° W 02:39:10 18° SW
FALCON 9 DEB 3.1 02:34:24 10° WNW 02:37:32 72° NNE 02:40:38 10° ESE
FALCON 9 DEB 2.8 02:37:49 10° WNW 02:40:56 86° NNE 02:44:02 10° ESE
ADEOS Rocket 3.3 02:34:26 10° SSE 02:41:45 79° WSW 02:48:22 10° NNW
Cosmos 1933 3.4 02:39:32 10° NNW 02:43:36 68° W 02:47:30 11° S
IRIDIUM 104 4.4 02:38:49 10° N 02:44:05 82° E 02:49:18 10° S
Cosmos 2150 Rocket 4.0 02:39:18 10° NNW 02:44:30 78° WSW 02:49:45 10° SSE
USA 290 2.8 02:44:01 18° SW 02:46:09 46° WNW 02:49:16 10° NNE
Cosmos 1570 Rocket 4.4 02:42:09 15° SW 02:46:22 55° WNW 02:51:31 10° NNE
SL-16 R/B 3.1 02:44:57 13° SSW 02:50:06 40° W 02:55:53 10° NNW
Meteor 1-28 Rocket 3.2 02:46:27 10° SSE 02:50:15 87° WSW 02:54:05 10° NNW
USA 305 2.9 02:46:34 13° WSW 02:50:16 87° SSE 02:54:34 10° ENE
DELTA 2 DEB (DPAF) 4.1 02:46:49 10° SSE 02:51:16 81° WSW 02:55:44 10° NNW
Lacrosse 4 Rocket 1.9 02:48:25 10° NW 02:52:11 35° WSW 02:55:52 10° S
Cosmos 1125 Rocket 3.5 02:47:08 10° NNW 02:52:25 81° WSW 02:57:41 10° SSE
IRIDIUM 114 4.3 02:47:59 10° N 02:53:14 84° W 02:58:27 10° S
Cosmos 1151 Rocket 3.1 02:49:44 10° N 02:54:02 79° E 02:58:16 10° SSE
Meteor 1-29 3.0 02:54:16 10° N 02:57:40 63° WNW 03:00:31 14° SSW
OE (NEXTSAT) 4.4 02:56:22 10° W 02:59:46 57° S 03:03:09 10° ESE
ARIANE 5 R/B 3.9 02:55:35 10° NNE 03:00:09 35° E 03:04:42 10° SSE
Resurs 1-4 Rocket 3.0 02:55:56 10° N 03:00:47 37° WNW 03:05:28 11° SW
CZ-4C R/B 3.4 02:57:08 10° S 03:01:23 31° ESE 03:06:21 10° NE
IRIDIUM 103 4.4 02:57:10 10° N 03:02:23 70° W 03:07:34 10° S
SL-4 R/B 2.0 03:00:08 10° WNW 03:03:46 67° NNE 03:07:14 10° E
Cosmos 1766 Rocket 3.7 02:59:27 10° S 03:03:54 80° E 03:08:23 10° NNE
Landsat 4 3.9 03:01:05 10° N 03:04:51 62° WNW 03:08:18 12° SSW
CENTAUR R/B 3.8 03:00:22 10° NW 03:08:14 63° NE 03:17:00 10° ESE
IKONOS-2 4.5 03:04:34 10° SSE 03:08:47 82° WSW 03:13:03 10° NNW
FALCON 9 DEB 4.4 03:08:40 10° W 03:11:19 21° SW 03:13:56 10° S
ADEOS II 2.3 03:07:17 10° N 03:12:28 59° WNW 03:17:36 10° SSW
Lacrosse 5 rocket 1.6 03:08:57 10° NW 03:12:32 62° NNE 03:16:12 10° ESE
USA 306 3.1 03:08:28 10° WSW 03:12:42 74° NNW 03:16:58 10° ENE
Cosmos 1862 4.1 03:09:35 10° S 03:13:30 51° E 03:17:27 10° NNE
Okean 3 Rocket 3.6 03:10:23 10° S 03:14:46 83° W 03:19:11 10° N
Meteor 2-3 Rocket 4.0 03:13:52 10° SSW 03:19:20 53° WNW 03:24:48 10° N
CZ-2D R/B 3.4 03:15:15 10° N 03:19:36 27° WNW 03:23:57 10° WSW
NOSS 2-2 (D) 4.1 03:18:04 10° WSW 03:21:19 38° NW 03:25:01 10° NNE
Cosmos 1655 Rocket 4.1 03:18:39 10° S 03:24:52 87° W 03:31:10 10° N
ASTEX 1 3.4 03:19:58 10° S 03:24:54 72° W 03:29:51 10° N
Cosmos 2151 4.3 03:21:43 10° SW 03:25:13 25° WNW 03:28:45 10° NNW
IDEFIX/ARIANE 42P 2.6 03:21:33 10° NNE 03:26:49 78° WNW 03:32:01 10° SSW
COSMOS 2406 4.4 03:28:33 10° S 03:33:44 39° ESE 03:38:57 10° NE
